PROXIMA II (43696 NORAD) Tracking and Keplerian Element Data

This shows tracking and keplerian element data for the satellite.

Feedback or suggestion? Click here.




ElementValue
Catalog43696
NamePROXIMA II
Epoch Orbit30593
Epoch Day126.16779973
Epoch Year2024
RAAN203.2834
Inclination85.0048
Eccentricity0.0003844
Argument of Perigee261.1118
Mean Anonmoly98.9727
Mean Motion15.93237782
Decay Rate0.00410612
L11 43696U 18088G 24126.16779973 .00410612 63758-4 11707-2 0 9992
L22 43696 85.0048 203.2834 0003844 261.1118 98.9727 15.93237782305935



Live tracking and technical data element details for PROXIMA II (NORAD 43696). PROXIMA II can be tracked NOW for your location showing map with azimuth and elevation plus other details from your city location.







IsCatalogInMostPopularTable: catalog: 43696, numindb: 394
Update: records affected: 1



GetName: 43696 PROXIMA II

Hit Count: updated at: Thu, 15 May 2025 10:37:35 GMT